Back to catalog

SL-12 R/B(2)

AliveGEO
NORAD 14115·ROCKET BODY·🇷🇺 Russia

Launched Sep 16, 1982 from Baikonur Cosmodrome

Loading…

TLE

FreshSource: Space-Track

Epoch: Sep 14, 2026, 05:21 UTC

1 14115U 82093F   26257.22325074  .00000084  00000-0  00000-0 0  9993
2 14115   6.2556 296.1671 0008059 313.4274 206.7194  1.01252803124756

Track SL-12 R/B(2) in real time with AllMySat

Download on the App Store